Weather reports worldwide

Advertisment
Loch Glascarnoch, United Kingdom (3031): temperature & dewpoint: 13.01.2019 09:00:00 - 19.01.2019 09:00:00 (GMT)Loch Glascarnoch, United Kingdom (3031): temperature -20cm & temperature -100cm: 13.01.2019 09:00:00 - 19.01.2019 09:00:00 (GMT)Loch Glascarnoch, United Kingdom (3031): wind speed & gusts: 13.01.2019 09:00:00 - 19.01.2019 09:00:00 (GMT)Loch Glascarnoch, United Kingdom (3031): wind direction: 13.01.2019 09:00:00 - 19.01.2019 09:00:00 (GMT)Loch Glascarnoch, United Kingdom (3031): reduced air pressure: 13.01.2019 09:00:00 - 19.01.2019 09:00:00 (GMT)Loch Glascarnoch, United Kingdom (3031): visibility: 13.01.2019 09:00:00 - 19.01.2019 09:00:00 (GMT)Loch Glascarnoch, United Kingdom (3031): sunshine duration: 13.01.2019 09:00:00 - 19.01.2019 09:00:00 (GMT)Loch Glascarnoch, United Kingdom (3031): precipitation: 13.01.2019 09:00:00 - 19.01.2019 09:00:00 (GMT)
Date & Time tt [°C] td [°C] tt -20cm [°C] tt -100cm [°C] ff [km/h] ff [kn] fx [km/h] fx [kn] dd ppp [hPa] vv [km] sd [min] rr [mm]
19.01.2019 09:00:00 - - - - - - - - - - - - 0,0
19.01.2019 08:00:00 -6,3 -6,8 - - 2 1 - - E 1009,3 45 0 0,0
19.01.2019 07:00:00 -7,1 -7,7 - - 2 1 - - SSE 1009,0 45 0 0,0
19.01.2019 06:00:00 -6,8 -7,5 - - 2 1 - - NW 1008,9 40 0 0,0
19.01.2019 05:00:00 -6,9 -7,8 - - 0 0 - - N 1008,7 45 0 0,0
19.01.2019 04:00:00 -6,6 -7,6 - - 2 1 - - WNW 1008,7 50 0 0,0
19.01.2019 03:00:00 -5,4 -6,6 - - 2 1 - - NNE 1008,6 50 0 0,0
19.01.2019 02:00:00 -4,2 -4,9 - - 4 2 - - SE 1008,6 50 0 0,0
19.01.2019 01:00:00 -5,8 -6,8 - - 0 0 - - N 1009,0 50 0 0,0
19.01.2019 00:00:00 -5,2 -6,5 - - 2 1 - - ENE 1009,0 40 - 0,0
18.01.2019 23:00:00 -2,9 -4,8 - - 8 4 - - NE 1008,7 50 0 0,0
18.01.2019 22:00:00 -1,3 -3,6 - - 4 2 - - NNW 1008,4 45 0 0,0
18.01.2019 21:00:00 -0,8 -3,6 - - 8 4 - - ESE 1008,4 45 0 0,0
18.01.2019 20:00:00 0,3 -4,3 - - 8 4 - - ESE 1008,3 50 0 0,0
18.01.2019 19:00:00 -0,5 -3,6 - - 9 5 - - SE 1008,5 35 0 0,0
18.01.2019 18:00:00 -0,3 -4,0 - - 8 4 - - SSE 1008,7 45 0 0,0
18.01.2019 17:00:00 -0,8 -3,7 - - 8 4 - - ESE 1009,0 40 0 0,0
18.01.2019 16:00:00 -0,6 -2,8 - - 2 1 - - ESE 1009,4 35 0 0,0
18.01.2019 15:00:00 0,0 -2,9 - - 2 1 - - ESE 1009,6 40 0 0,0
18.01.2019 14:00:00 -0,1 -2,8 - - 2 1 - - SSE 1010,3 35 0 0,0
18.01.2019 13:00:00 -1,0 -3,7 - - 4 2 - - NE 1010,9 30 0 0,0
18.01.2019 12:00:00 -2,1 -4,6 - - 2 1 - - W 1011,4 30 36 0,0
18.01.2019 11:00:00 -4,9 -6,2 - - 4 2 - - E 1012,3 30 0 0,0
18.01.2019 10:00:00 -5,8 -7,2 - - 4 2 - - W 1012,8 45 0 0,0
18.01.2019 09:00:00 -6,6 -8,2 4,0 4,7 2 1 - - NNW 1013,0 40 0 0,0
18.01.2019 08:00:00 -6,3 -7,6 - - 4 2 - - SW 1013,1 40 0 0,0
18.01.2019 07:00:00 -6,0 -7,1 - - 5 3 - - SW 1013,3 50 0 0,0
18.01.2019 06:00:00 -5,8 -6,8 - - 5 3 - - WNW 1013,7 40 0 0,0
18.01.2019 05:00:00 -6,4 -7,3 - - 4 2 - - WNW 1014,0 29 0 0,0
18.01.2019 04:00:00 -7,0 -7,8 - - 4 2 - - W 1014,5 30 0 0,0
18.01.2019 03:00:00 - - - - - - - - - - - - -
18.01.2019 02:00:00 -6,1 -6,6 - - 2 1 - - SW 1015,2 23 0 0,0
18.01.2019 01:00:00 -6,9 -7,6 - - 4 2 - - WNW 1015,9 25 0 0,0
18.01.2019 00:00:00 -5,3 -6,0 - - 2 1 - - NNE 1016,1 22 - 0,0
17.01.2019 23:00:00 -4,1 -4,6 - - 4 2 - - ESE 1016,5 23 0 0,0
17.01.2019 22:00:00 -5,2 -6,1 - - 2 1 - - NNW 1017,1 23 0 0,0
17.01.2019 21:00:00 -3,8 -4,9 - - 4 2 - - W 1017,3 21 0 0,0
17.01.2019 20:00:00 -3,1 -4,1 - - 2 1 - - SW 1017,3 22 0 0,0
17.01.2019 19:00:00 -2,6 -3,8 - - 5 3 - - ENE 1017,4 19 0 0,0
17.01.2019 18:00:00 -2,7 -4,1 - - 8 4 - - W 1017,2 30 0 0,0
17.01.2019 17:00:00 -3,8 -5,1 - - 5 3 - - W 1017,3 26 0 0,0
17.01.2019 16:00:00 -2,9 -4,5 - - 8 4 - - WNW 1017,1 25 0 0,0
17.01.2019 15:00:00 -2,2 -4,4 - - 4 2 - - SSW 1016,9 25 0 0,0
17.01.2019 14:00:00 -0,5 -2,8 - - 9 5 - - W 1016,6 24 30 0,0
17.01.2019 13:00:00 -0,8 -2,6 - - 11 6 - - WNW 1016,3 30 36 0,0
17.01.2019 12:00:00 -1,1 -2,8 - - 15 8 - - WNW 1016,1 25 60 0,0
17.01.2019 11:00:00 -1,1 -2,6 - - 15 8 - - W 1015,9 35 42 0,0
17.01.2019 10:00:00 -0,6 -1,8 - - 13 7 - - WNW 1015,2 6 0 0,0
17.01.2019 09:00:00 -0,6 -1,6 4,5 4,9 15 8 - - WNW 1014,7 14 0 0,0
17.01.2019 08:00:00 -0,4 -1,7 - - 22 12 48 26 NW 1013,8 0,2 0 0,0
17.01.2019 07:00:00 0,8 -3,6 - - 31 17 50 27 NNW 1012,1 23 0 0,0
17.01.2019 06:00:00 -0,6 -1,7 - - 29 16 50 27 NNW 1011,6 1,6 0 0,0
17.01.2019 05:00:00 0,1 -3,3 - - 29 16 46 25 NW 1010,2 30 0 0,0
17.01.2019 04:00:00 0,1 -2,1 - - 28 15 48 26 NW 1009,3 3,4 0 0,0
17.01.2019 03:00:00 -0,7 -1,8 - - 34 18 48 26 NW 1008,1 21 0 0,0
17.01.2019 02:00:00 -0,2 -3,4 - - 29 16 - - NW 1007,2 20 0 0,0
17.01.2019 01:00:00 -1,3 -4,1 - - 22 12 - - NNW 1006,8 18 0 0,0
17.01.2019 00:00:00 -0,7 -2,9 - - 28 15 - - NW 1006,2 30 - 0,0
16.01.2019 23:00:00 -1,2 -3,0 - - 15 8 - - WNW 1004,9 1,3 0 0,0
16.01.2019 22:00:00 -1,3 -4,8 - - 18 10 48 26 NW 1004,0 35 0 0,0
16.01.2019 21:00:00 -0,9 -4,6 - - 31 17 52 28 NW 1003,2 30 0 0,0
16.01.2019 20:00:00 0,0 -2,0 - - 37 20 61 33 NW 1001,7 11 0 0,0
16.01.2019 19:00:00 0,5 -0,2 - - 35 19 54 29 NNW 1000,1 2,2 0 0,0
16.01.2019 18:00:00 0,2 0,2 - - 13 7 - - W 998,2 1,0 0 0,0
16.01.2019 17:00:00 0,1 0,1 - - 11 6 - - W 997,0 4,0 0 0,0
16.01.2019 16:00:00 0,2 0,2 - - 16 9 - - WNW 996,2 2,1 0 0,2
16.01.2019 15:00:00 0,2 0,1 - - 18 10 - - WNW 995,4 2,2 0 0,4
16.01.2019 14:00:00 0,1 0,0 - - 21 11 - - WNW 994,7 2,3 0 0,2
16.01.2019 13:00:00 0,0 -0,1 - - 16 9 - - WNW 994,1 2,4 0 0,0
16.01.2019 12:00:00 0,7 0,6 - - 13 7 - - WNW 993,3 4,1 0 0,8
16.01.2019 11:00:00 0,5 0,3 - - 5 3 - - NW 992,7 7 0 1,0
16.01.2019 10:00:00 0,8 0,6 - - 4 2 - - E 992,3 50 0 0,6
16.01.2019 09:00:00 0,7 0,5 4,9 4,9 5 3 - - ESE 992,5 14 0 0,4
16.01.2019 08:00:00 0,5 0,3 - - 8 4 - - NNE 992,7 40 0 0,2
16.01.2019 07:00:00 0,3 -0,2 - - 2 1 - - E 992,9 10 0 0,8
16.01.2019 06:00:00 1,3 0,6 - - 2 1 - - W 993,5 4,4 0 2,0
16.01.2019 05:00:00 2,4 1,2 - - 11 6 - - WNW 993,6 5 0 1,4
16.01.2019 04:00:00 3,8 2,4 - - 13 7 - - WSW 993,6 35 0 0,6
16.01.2019 03:00:00 4,4 3,4 - - 18 10 - - WNW 994,1 7 0 0,4
16.01.2019 02:00:00 5,3 3,3 - - 22 12 - - W 994,1 40 0 0,0
16.01.2019 01:00:00 5,5 3,4 - - 26 14 - - W 994,2 40 0 0,0
16.01.2019 00:00:00 6,0 4,2 - - 34 18 70 38 W 994,0 28 - 0,2
15.01.2019 23:00:00 7,1 5,3 - - 41 22 59 32 W 993,7 7 0 0,8
15.01.2019 22:00:00 8,7 6,2 - - 35 19 70 38 W 993,3 6 0 0,4
15.01.2019 21:00:00 8,8 6,6 - - 41 22 65 35 W 994,2 7 0 0,0
15.01.2019 20:00:00 8,4 6,3 - - 41 22 74 40 WSW 995,6 3,8 0 0,2
15.01.2019 19:00:00 8,1 5,8 - - 39 21 65 35 WSW 996,9 8 0 0,0
15.01.2019 18:00:00 7,9 4,9 - - 39 21 63 34 WSW 998,1 23 0 0,0
15.01.2019 17:00:00 7,5 5,2 - - 39 21 67 36 WSW 999,3 4,8 0 0,2
15.01.2019 16:00:00 8,3 4,6 - - 29 16 55 30 W 1000,5 18 0 0,0
15.01.2019 15:00:00 8,5 4,9 - - 39 21 74 40 W 1001,0 30 0 0,0
15.01.2019 14:00:00 8,9 5,7 - - 41 22 59 32 W 1001,7 5 0 0,4
15.01.2019 13:00:00 8,6 7,0 - - 35 19 52 28 W 1002,4 4,8 0 0,4
15.01.2019 12:00:00 6,4 5,9 - - 18 10 - - WNW 1003,6 13 0 0,0
15.01.2019 11:00:00 5,9 5,4 - - 16 9 - - WNW 1004,7 10 0 0,2
15.01.2019 10:00:00 5,5 4,9 - - 21 11 - - WNW 1005,6 6 0 0,4
15.01.2019 09:00:00 5,5 5,2 4,7 4,9 26 14 - - WNW 1005,7 11 0 1,6
15.01.2019 08:00:00 5,9 5,4 - - 28 15 - - W 1005,7 11 0 1,6
15.01.2019 07:00:00 6,2 5,8 - - 29 16 - - WNW 1005,9 9 0 0,8
15.01.2019 06:00:00 6,6 5,8 - - 34 18 50 27 WNW 1006,2 7 0 0,0
15.01.2019 05:00:00 7,1 6,6 - - 37 20 59 32 W 1006,5 7 0 0,2
15.01.2019 04:00:00 8,0 7,1 - - 35 19 61 33 WNW 1006,2 11 0 0,0
15.01.2019 03:00:00 8,8 7,4 - - 44 24 63 34 W 1006,3 12 0 0,6
15.01.2019 02:00:00 9,1 7,5 - - 46 25 70 38 W 1006,4 6 0 0,2
15.01.2019 01:00:00 8,8 7,0 - - 34 18 59 32 W 1006,8 11 0 1,0
15.01.2019 00:00:00 8,6 5,9 - - 42 23 59 32 W 1007,4 12 - 0,8
14.01.2019 23:00:00 7,2 5,6 - - 34 18 54 29 W 1008,5 16 0 0,2
14.01.2019 22:00:00 7,2 5,4 - - 37 20 55 30 W 1009,1 11 0 0,0
14.01.2019 21:00:00 6,8 5,0 - - 39 21 55 30 W 1009,7 28 0 0,0
14.01.2019 20:00:00 7,4 4,3 - - 21 11 - - WSW 1011,0 40 0 0,0
14.01.2019 19:00:00 5,7 4,3 - - 11 6 - - WNW 1012,1 40 0 0,0
14.01.2019 18:00:00 5,3 3,5 - - 21 11 - - W 1012,9 40 0 0,0
14.01.2019 17:00:00 4,8 2,4 - - 26 14 - - W 1013,7 35 0 0,0
14.01.2019 16:00:00 4,3 2,5 - - 16 9 - - W 1014,4 30 0 0,2
14.01.2019 15:00:00 3,6 2,6 - - 13 7 - - W 1015,0 30 0 0,0
14.01.2019 14:00:00 3,1 2,0 - - 15 8 - - W 1015,5 45 0 0,0
14.01.2019 13:00:00 2,9 2,4 - - 21 11 - - W 1016,1 50 0 0,2
14.01.2019 12:00:00 0,3 -0,1 - - 2 1 - - E 1016,7 45 6 -
14.01.2019 11:00:00 -0,2 -0,4 - - 2 1 - - E 1017,4 40 36 0,0
14.01.2019 10:00:00 -2,9 -3,2 - - 8 4 - - ENE 1018,3 40 0 0,0
14.01.2019 09:00:00 -4,5 -5,0 4,9 4,9 2 1 - - W 1019,0 50 0 0,0
14.01.2019 08:00:00 -4,3 -4,8 - - 2 1 - - WNW 1018,8 50 0 0,0
14.01.2019 07:00:00 -3,3 -3,9 - - 5 3 - - WNW 1018,4 50 0 0,0
14.01.2019 06:00:00 -3,2 -3,8 - - 4 2 - - W 1018,3 50 0 0,0
14.01.2019 05:00:00 -2,0 -2,5 - - 5 3 - - WSW 1018,0 50 0 0,0
14.01.2019 04:00:00 -0,8 -1,3 - - 5 3 - - W 1017,7 35 0 0,0
14.01.2019 03:00:00 0,4 -0,4 - - 2 1 - - W 1017,0 50 0 0,0
14.01.2019 02:00:00 1,2 0,0 - - 8 4 - - NE 1016,2 50 0 0,0
14.01.2019 01:00:00 1,6 0,1 - - 9 5 - - NNE 1015,4 40 0 0,0
14.01.2019 00:00:00 2,1 0,2 - - 4 2 - - NW 1014,3 50 - 0,0
13.01.2019 23:00:00 2,3 0,0 - - 21 11 - - NE 1013,1 50 0 0,0
13.01.2019 22:00:00 2,6 1,3 - - 18 10 - - N 1011,7 40 0 0,2
13.01.2019 21:00:00 4,1 3,5 - - 22 12 52 28 W 1009,7 18 0 1,2
13.01.2019 20:00:00 4,5 3,5 - - 37 20 57 31 WNW 1008,2 23 0 0,6
13.01.2019 19:00:00 4,8 3,5 - - 37 20 57 31 WNW 1006,9 22 0 1,0
13.01.2019 18:00:00 4,7 3,3 - - 41 22 57 31 WNW 1006,0 22 0 1,2
13.01.2019 17:00:00 4,5 3,2 - - 29 16 63 34 WNW 1005,1 28 0 0,6
13.01.2019 16:00:00 4,6 3,3 - - 39 21 61 33 W 1004,5 5 0 0,8
13.01.2019 15:00:00 5,1 2,9 - - 37 20 68 37 WNW 1003,8 19 0 0,2
13.01.2019 14:00:00 4,9 3,1 - - 37 20 61 33 WNW 1004,4 8 0 0,8
13.01.2019 13:00:00 5,2 2,8 - - 41 22 70 38 WNW 1004,4 18 0 1,4
13.01.2019 12:00:00 5,0 4,0 - - 28 15 54 29 WNW 1004,1 3,0 0 1,6
13.01.2019 11:00:00 5,7 3,9 - - 34 18 76 41 W 1003,7 14 0 1,0
13.01.2019 10:00:00 5,6 3,7 - - 37 20 65 35 WNW 1003,7 20 0 0,2
13.01.2019 09:00:00 5,7 3,9 5,0 4,7 46 25 74 40 WNW 1003,7 6 0 0,2

tt = temperature
td = dewpoint
tt -20cm = temperature -20cm
tt -100cm = temperature -100cm
ff = wind speed
fx = gusts
dd = wind direction
ppp = reduced air pressure
vv = visibility
sd = sunshine duration
rr = precipitation

Next stations